| time (UTC) | temp F | wind direction | speed MPH | gust MPH | rain 1hr in | rain 24hr in | rain mn in | humidity % | barometer mb |
| 20260507123033 | 61 | 38 | 0.0 | 1.0 | 0.03 | 0.17 | 0.04 | 86 | 1013.6 |
| 20260507122530 | 62 | 38 | 0.0 | 0.0 | 0.02 | 0.17 | 0.03 | 85 | 1013.6 |
| 20260507122029 | 62 | 38 | 0.0 | 3.0 | 0.02 | 0.16 | 0.02 | 84 | 1013.4 |
| 20260507121533 | 63 | 38 | 0.0 | 3.0 | 0.02 | 0.16 | 0.02 | 82 | 1013.4 |
| 20260507121030 | 64 | 42 | 0.0 | 3.0 | 0.02 | 0.16 | 0.02 | 81 | 1013.4 |
| 20260507120529 | 65 | 82 | 0.0 | 0.0 | 0.01 | 0.15 | 0.02 | 80 | 1013.5 |
| 20260507120030 | 65 | 82 | 0.0 | 0.0 | 0.01 | 0.15 | 0.02 | 78 | 1013.3 |
| 20260507115531 | 66 | 82 | 0.0 | 0.0 | 0.01 | 0.31 | 0.02 | 78 | 1013.2 |
| 20260507115028 | 66 | 82 | 0.0 | 2.0 | 0.01 | 0.31 | 0.02 | 73 | 1013.3 |
| 20260507114528 | 66 | 80 | 0.0 | 2.0 | 0.00 | 0.30 | 0.01 | 67 | 1013.5 |
| 20260507114030 | 66 | 19 | 0.0 | 3.0 | 0.00 | 0.30 | 0.01 | 64 | 1013.4 |
| 20260507113529 | 67 | 19 | 0.0 | 3.0 | 0.00 | 0.30 | 0.01 | 62 | 1013.4 |
| 20260507113028 | 67 | 89 | 0.0 | 3.0 | 0.00 | 0.30 | 0.01 | 62 | 1013.4 |
| 20260507112529 | 68 | 173 | 0.0 | 5.0 | 0.00 | 0.30 | 0.01 | 60 | 1013.4 |
| 20260507112028 | 69 | 141 | 1.0 | 4.0 | 0.00 | 0.30 | 0.01 | 60 | 1013.5 |
| 20260507111528 | 69 | 195 | 1.0 | 5.0 | 0.00 | 0.30 | 0.01 | 59 | 1013.4 |
| 20260507111027 | 70 | 118 | 0.0 | 5.0 | 0.00 | 0.30 | 0.01 | 57 | 1013.3 |
| 20260507110526 | 69 | 149 | 0.0 | 2.0 | 0.00 | 0.30 | 0.01 | 60 | 1013.3 |
| 20260507110025 | 69 | 145 | 0.0 | 5.0 | 0.00 | 0.30 | 0.01 | 59 | 1013.3 |
| 20260507105524 | 69 | 138 | 1.0 | 5.0 | 0.00 | 0.30 | 0.01 | 63 | 1013.5 |
| 20260507105023 | 69 | 140 | 1.0 | 6.0 | 0.00 | 0.30 | 0.01 | 65 | 1013.6 |
| 20260507104522 | 68 | 186 | 3.0 | 6.0 | 0.00 | 0.30 | 0.01 | 63 | 1013.6 |
| 20260507104022 | 68 | 176 | 1.0 | 6.0 | 0.00 | 0.30 | 0.01 | 65 | 1013.5 |
| 20260507103523 | 68 | 188 | 1.0 | 5.0 | 0.00 | 0.30 | 0.01 | 67 | 1013.6 |
| 20260507103020 | 68 | 184 | 1.0 | 5.0 | 0.00 | 0.30 | 0.01 | 66 | 1013.7 |
| 20260507102522 | 68 | 173 | 1.0 | 5.0 | 0.00 | 0.30 | 0.01 | 67 | 1013.7 |
| 20260507102019 | 67 | 173 | 1.0 | 6.0 | 0.00 | 0.30 | 0.01 | 66 | 1013.9 |
| 20260507101518 | 67 | 173 | 1.0 | 6.0 | 0.00 | 0.30 | 0.01 | 69 | 1013.9 |
| 20260507101020 | 67 | 133 | 0.0 | 6.0 | 0.00 | 0.30 | 0.01 | 70 | 1014.0 |
| 20260507100518 | 67 | 203 | 0.0 | 4.0 | 0.00 | 0.30 | 0.01 | 68 | 1014.0 |
| 20260507100018 | 67 | 151 | 0.0 | 4.0 | 0.00 | 0.30 | 0.01 | 66 | 1014.0 |
| 20260507095517 | 66 | 151 | 0.0 | 4.0 | 0.00 | 0.30 | 0.01 | 69 | 1014.0 |
| 20260507095017 | 67 | 155 | 0.0 | 6.0 | 0.00 | 0.30 | 0.01 | 67 | 1014.0 |
| 20260507094517 | 67 | 143 | 1.0 | 6.0 | 0.00 | 0.30 | 0.01 | 68 | 1014.0 |
| 20260507094016 | 67 | 117 | 0.0 | 4.0 | 0.00 | 0.30 | 0.01 | 70 | 1014.0 |
| 20260507093518 | 67 | 94 | 0.0 | 5.0 | 0.00 | 0.30 | 0.01 | 67 | 1013.8 |
| 20260507093017 | 67 | 90 | 0.0 | 5.0 | 0.00 | 0.30 | 0.01 | 72 | 1013.8 |
| 20260507092511 | 66 | 173 | 0.0 | 3.0 | 0.00 | 0.30 | 0.01 | 69 | 1013.9 |
| 20260507092011 | 66 | 162 | 0.0 | 4.0 | 0.00 | 0.30 | 0.01 | 72 | 1013.8 |
| 20260507091509 | 65 | 68 | 0.0 | 5.0 | 0.00 | 0.30 | 0.01 | 76 | 1013.9 |
| 20260507091008 | 64 | 164 | 2.0 | 5.0 | 0.00 | 0.30 | 0.01 | 74 | 1013.9 |
| 20260507090507 | 64 | 138 | 0.0 | 4.0 | 0.00 | 0.30 | 0.01 | 77 | 1013.9 |
| 20260507090007 | 63 | 184 | 0.0 | 2.0 | 0.00 | 0.30 | 0.01 | 76 | 1013.9 |
| 20260507085508 | 63 | 184 | 0.0 | 2.0 | 0.00 | 0.33 | 0.01 | 75 | 1013.9 |
| 20260507085010 | 64 | 184 | 0.0 | 1.0 | 0.00 | 0.33 | 0.01 | 77 | 1013.9 |
| 20260507084526 | 64 | 184 | 0.0 | 2.0 | 0.00 | 0.33 | 0.01 | 77 | 1013.8 |
| 20260507084007 | 64 | 184 | 0.0 | 2.0 | 0.00 | 0.33 | 0.01 | 75 | 1013.9 |
| 20260507083509 | 64 | 184 | 0.0 | 3.0 | 0.00 | 0.33 | 0.01 | 74 | 1013.8 |
| 20260507083006 | 64 | 184 | 0.0 | 3.0 | 0.00 | 0.33 | 0.01 | 76 | 1013.9 |
| 20260507082504 | 64 | 184 | 0.0 | 3.0 | 0.00 | 0.33 | 0.01 | 80 | 1013.8 |
| 20260507082003 | 64 | 150 | 0.0 | 3.0 | 0.00 | 0.33 | 0.01 | 81 | 1013.7 |
| 20260507081502 | 63 | 150 | 0.0 | 3.0 | 0.00 | 0.33 | 0.01 | 82 | 1013.8 |
| 20260507081002 | 62 | 221 | 0.0 | 1.0 | 0.00 | 0.33 | 0.01 | 84 | 1013.9 |
| 20260507080600 | 62 | 160 | 0.0 | 1.0 | 0.00 | 0.33 | 0.01 | 88 | 1013.9 |
| 20260507080058 | 61 | 159 | 0.0 | 1.0 | 0.00 | 0.33 | 0.01 | 87 | 1013.9 |
| 20260507075559 | 60 | 159 | 0.0 | 3.0 | 0.00 | 0.35 | 0.01 | 87 | 1013.9 |
| 20260507075059 | 60 | 159 | 0.0 | 3.0 | 0.00 | 0.35 | 0.01 | 88 | 1013.9 |
| 20260507074600 | 60 | 151 | 0.0 | 2.0 | 0.00 | 0.35 | 0.01 | 91 | 1013.9 |
| 20260507074053 | 59 | 151 | 0.0 | 2.0 | 0.00 | 0.35 | 0.01 | 90 | 1013.8 |
| 20260507073553 | 59 | 151 | 0.0 | 2.0 | 0.00 | 0.35 | 0.01 | 90 | 1013.7 |
| 20260507073053 | 59 | 151 | 0.0 | 2.0 | 0.00 | 0.35 | 0.01 | 91 | 1013.8 |
| 20260507072552 | 59 | 151 | 0.0 | 1.0 | 0.00 | 0.35 | 0.01 | 91 | 1013.7 |
| 20260507072055 | 59 | 151 | 0.0 | 3.0 | 0.00 | 0.35 | 0.01 | 91 | 1013.7 |
| 20260507071551 | 59 | 151 | 0.0 | 3.0 | 0.00 | 0.35 | 0.01 | 91 | 1013.6 |
| 20260507071051 | 59 | 137 | 0.0 | 3.0 | 0.00 | 0.35 | 0.01 | 92 | 1013.5 |
| 20260507070550 | 59 | 121 | 0.0 | 2.0 | 0.00 | 0.35 | 0.01 | 92 | 1013.5 |
| 20260507065548 | 59 | 121 | 0.0 | 3.0 | 0.00 | 0.69 | 0.01 | 95 | 1013.4 |
| 20260507065049 | 59 | 121 | 0.0 | 2.0 | 0.00 | 0.69 | 0.01 | 94 | 1013.4 |
| 20260507064553 | 59 | 121 | 0.0 | 1.0 | 0.00 | 0.69 | 0.01 | 96 | 1013.3 |
| 20260507064047 | 58 | 121 | 0.0 | 0.0 | 0.00 | 0.69 | 0.01 | 97 | 1013.2 |
| 20260507063545 | 58 | 121 | 0.0 | 0.0 | 0.00 | 0.69 | 0.01 | 100 | 1013.2 |
| 20260507063043 | 58 | 121 | 0.0 | 0.0 | 0.00 | 0.69 | 0.01 | 99 | 1013.3 |
| 20260507062545 | 57 | 121 | 0.0 | 0.0 | 0.00 | 0.69 | 0.01 | 99 | 1013.3 |
| 20260507062040 | 57 | 121 | 0.0 | 0.0 | 0.00 | 0.69 | 0.01 | 100 | 1013.3 |
| 20260507061538 | 56 | 121 | 0.0 | 0.0 | 0.00 | 0.69 | 0.01 | 100 | 1013.3 |
| 20260507061038 | 56 | 121 | 0.0 | 0.0 | 0.00 | 0.69 | 0.01 | 99 | 1013.3 |
| 20260507060536 | 55 | 121 | 0.0 | 0.0 | 0.00 | 0.69 | 0.01 | 100 | 1013.3 |
| 20260507060040 | 55 | 121 | 0.0 | 0.0 | 0.00 | 0.69 | 0.01 | 100 | 1013.3 |
| 20260507055534 | 55 | 121 | 0.0 | 0.0 | 0.00 | 0.90 | 0.01 | 100 | 1013.2 |
| 20260507055033 | 55 | 121 | 0.0 | 1.0 | 0.00 | 0.90 | 0.01 | 100 | 1013.2 |
| 20260507054545 | 55 | 178 | 0.0 | 0.0 | 0.00 | 0.90 | 0.01 | 100 | 1013.1 |
| 20260507054034 | 54 | 178 | 0.0 | 0.0 | 0.00 | 0.90 | 0.01 | 100 | 1013.1 |
| 20260507053530 | 53 | 178 | 0.0 | 0.0 | 0.00 | 0.90 | 0.01 | 100 | 1013.0 |
| 20260507053029 | 53 | 178 | 0.0 | 0.0 | 0.00 | 0.90 | 0.01 | 99 | 1012.9 |
| 20260507052508 | 53 | 178 | 0.0 | 0.0 | 0.00 | 0.90 | 0.01 | 99 | 1012.9 |
| 20260507052008 | 52 | 178 | 0.0 | 0.0 | 0.00 | 0.90 | 0.01 | 99 | 1012.9 |